This demonstration page uses our WeatherBlox Daily Observations layout. Learn more.

41.55636, -103.73856

Hourly Observations for July 11, 2020

Temp ( °F °C ) Dew Point ( °F °C ) Humidity (%) Winds ( mph kmh ) Pressure ( in mb ) Visibility ( mi km ) Precip ( " mm )
1:58 am 01:58 Clear 92 33.2 19 -7.4 7 7 WNW 16 26 29.86 1011 10 16.0934 0 0
2:58 am 02:58 Clear 81 27.1 23 -5.2 12 12 NW 13 20 29.89 1012 10 16.0934 0 0
3:58 am 03:58 Clear 74 23.6 58 14.5 57 57 NNE 10 17 29.95 1014 10 16.0934 0 0
4:58 am 04:58 Clear 70 21.2 58 14.2 64 64 N 9 15 29.98 1015 10 16.0934 0 0
5:58 am 05:58 Clear 67 19.2 58 14.2 73 73 Calm 30.01 1016 10 16.0934 0 0
6:58 am 06:58 Clear 64 17.6 56 13.2 76 76 WNW 10 17 30.03 1017 10 16.0934 0 0
7:58 am 07:58 Clear 63 17 55 13 77 77 NW 10 17 30.05 1018 10 16.0934 0 0
8:58 am 08:58 Clear 60 15.8 56 13.6 87 87 WNW 7 11 30.07 1018 10 16.0934 0 0
9:58 am 09:58 Clear 58 14.6 55 13 90 90 WSW 6 9 30.11 1020 10 16.0934 0 0
10:58 am 10:58 Mostly Clear 58 14.5 56 13.1 91 91 WSW 3 6 30.13 1020 10 16.0934 0 0
11:58 am 11:58 Mostly Cloudy 58 14.6 56 13.2 91 91 Calm 30.16 1021 10 16.0934 0 0
12:58 pm 12:58 Sunny 60 15.3 56 13.4 89 89 NW 5 7 30.17 1022 10 16.0934 0 0
1:58 pm 13:58 Sunny 66 18.8 57 13.7 72 72 NNW 7 11 30.18 1022 10 16.0934 0 0
2:58 pm 14:58 Sunny 70 21.2 56 13.1 60 60 NNE 8 13 30.17 1022 10 16.0934 0 0
3:58 pm 15:58 Sunny 73 23 55 12.8 53 53 ENE 8 13 30.18 1022 10 16.0934 0 0
4:58 pm 16:58 Sunny 77 25 49 9.3 37 37 NNE 6 9 30.16 1021 10 16.0934 0 0
5:58 pm 17:58 Sunny 80 26.5 50 10 35 35 NNE 6 9 30.15 1021 10 16.0934 0 0
6:58 pm 18:58 Sunny 82 28 47 8.3 29 29 NE 7 11 30.13 1020 10 16.0934 0 0
7:58 pm 19:58 Sunny 85 29.7 43 6.2 23 23 WNW 5 7 30.11 1020 10 16.0934 0 0
8:58 pm 20:58 Sunny 88 31.2 38 3.5 17 17 SSE 6 9 30.07 1018 10 16.0934 0 0
9:58 pm 21:58 Sunny 90 32.3 37 2.9 15 15 NNE 6 9 30.04 1017 10 16.0934 0 0
10:58 pm 22:58 Sunny 88 30.9 38 3.5 17 17 ESE 10 17 30.02 1017 10 16.0934 0 0
11:58 pm 23:58 Sunny 89 31.6 36 2.2 15 15 E 12 19 30.01 1016 10 16.0934 0 0

Powered by AerisWeather